Lid_Strength_Index
3 4 4 4 3 4 4 3 3 3 3 3 3 2 2 2 3 6 10 7 4 -1 1 8 9 10 10 11 11 11 12 14 15 14 12 11 12 7 5 6 5 5 5 4 2
4 4 4 4 4 4 4 4 4 3 3 3 3 3 2 2 7 9 3 -1 -2 -3 8 10 11 10 11 12 12 12 14 12 12 12 12 11 12 10 7 7 7 6 4 3 3
4 4 4 4 4 4 4 4 4 4 3 3 3 3 2 3 11 9 -2 -2 -3 -2 9 10 10 11 10 13 13 14 13 11 11 11 12 12 12 11 7 9 7 6 6 4 4
4 4 4 4 4 4 4 4 4 4 4 4 3 3 2 6 12 9 -3 -3 -3 7 9 11 11 10 12 11 13 12 11 11 11 11 13 12 12 11 6 6 4 4 5 4 4
5 4 4 5 4 4 4 4 4 4 4 4 3 2 7 12 11 7 -3 -1 6 7 10 11 10 10 12 13 13 14 12 11 10 11 12 12 12 11 10 5 5 4 4 4 4
5 5 5 4 4 4 4 4 4 4 4 4 3 2 8 14 9 5 3 4 5 8 9 10 11 11 12 13 11 12 11 10 11 12 12 12 11 11 9 8 5 4 5 4 4
4 5 5 4 4 4 4 4 4 4 4 3 3 3 9 10 7 5 5 6 4 6 8 8 8 10 11 12 11 11 12 11 11 11 12 11 11 12 9 5 6 5 5 4 4
4 4 4 4 4 4 4 4 4 3 3 3 2 5 11 8 6 4 6 6 6 5 6 6 8 10 12 11 11 13 14 14 11 10 10 10 12 10 9 6 6 6 5 5 4
4 4 4 4 4 4 4 4 4 2 2 2 6 7 9 3 5 6 7 7 8 7 7 5 9 11 11 14 15 15 15 15 12 11 11 11 12 9 9 7 6 7 6 5 4
4 5 4 4 4 4 5 5 4 3 3 3 4 10 7 6 4 5 7 8 8 8 8 9 11 12 13 14 17 16 15 14 14 11 11 12 12 10 10 10 9 9 5 5 5
4 5 5 5 4 5 6 10 11 11 9 11 10 8 6 4 5 7 7 8 8 9 12 10 12 14 13 12 12 13 14 14 12 11 12 12 12 10 10 10 10 10 10 7 5
4 5 4 5 5 5 9 10 10 10 13 9 9 8 6 6 8 6 7 10 10 13 11 12 13 11 10 10 11 12 13 13 11 11 12 11 11 11 10 10 10 9 10 9 6
4 4 4 5 5 8 10 9 8 10 13 10 9 9 9 7 9 8 7 9 11 13 13 13 11 9 9 10 11 13 13 13 12 11 11 12 13 13 10 10 10 9 10 9 9
4 4 4 5 8 10 10 8 9 10 13 9 9 8 8 9 9 6 6 8 11 12 12 13 10 10 11 11 11 14 11 11 11 13 15 13 16 13 12 11 9 9 10 6 6
4 4 5 5 10 11 9 9 9 8 16 8 9 7 9 9 8 8 6 8 11 11 11 12 11 11 11 11 10 11 9 11 11 14 15 13 15 13 12 11 10 9 8 8 6
4 4 5 8 11 10 9 9 8 13 16 9 9 10 10 9 8 9 8 7 8 10 11 11 10 10 10 9 10 9 10 12 14 15 16 15 15 15 13 11 10 9 8 7 5
4 4 6 7 11 10 9 9 14 15 9 10 10 10 11 10 9 10 10 12 13 14 14 11 11 10 9 12 11 11 14 17 16 17 16 14 15 13 10 9 8 8 8 8 6
5 6 9 8 9 9 9 11 16 11 10 8 9 10 11 10 10 10 11 13 11 12 14 14 14 10 8 12 13 13 14 16 18 18 17 14 16 12 9 8 7 7 8 7 6
7 12 11 10 8 9 10 15 14 11 9 9 10 12 12 10 11 11 11 10 11 11 14 14 13 9 8 10 11 13 14 14 15 17 17 16 13 11 9 8 8 8 7 8 7
11 12 10 8 8 10 12 14 12 8 8 9 12 11 13 11 12 12 11 9 9 8 10 12 13 10 8 9 8 11 11 14 16 18 19 16 15 14 11 10 9 8 8 7 6
12 10 8 8 9 12 16 15 12 8 7 10 11 12 11 12 12 12 11 9 8 8 9 11 12 11 10 11 12 12 13 14 15 16 18 19 16 12 10 10 10 9 7 7 6
12 12 7 9 13 14 15 12 9 9 7 8 9 10 11 11 12 12 11 10 7 9 11 11 12 14 13 10 10 11 13 14 15 16 15 17 16 10 9 9 8 8 7 7 6
12 11 7 8 14 15 12 9 8 8 9 9 10 9 10 12 14 11 10 7 7 8 11 11 14 16 14 13 11 11 10 11 13 15 16 16 15 10 8 8 8 9 9 8 7
12 12 10 10 12 13 12 11 10 7 8 9 10 10 11 12 11 12 10 7 7 7 6 8 13 14 16 15 12 12 10 10 13 16 15 14 14 11 10 10 10 10 9 8 7
12 12 11 13 12 12 12 11 11 10 9 9 10 10 12 14 12 12 10 9 8 7 9 11 14 13 12 11 11 11 11 11 13 12 14 12 12 11 9 10 10 9 9 8 7
13 12 12 11 11 12 12 13 10 9 10 10 11 9 10 12 12 11 11 11 11 10 11 11 13 12 13 10 11 12 11 11 11 11 11 12 12 8 8 9 9 9 9 8 7
13 11 11 12 12 12 12 11 9 9 9 8 9 10 10 9 9 9 9 9 10 11 11 12 12 14 15 12 12 15 12 12 11 10 11 14 11 8 9 9 9 9 9 9 8